Погода в Урдоме

Россия / Архангельская область     61°45′31″N   48°32′25″E
темп.,
°C
ветер,
м/с
пор.,
м/с
влажн.,
%
обл.,
%
осадки,
мм/ч
давл.,
гПа
погр.,
м
12 апреля, пн
пн1200:00+2зюз414823 0.0 1030546
03:000зюз310865 0.0 1032332
06:000зюз311905 0.0 1034414
09:00+5зюз486646 0.0 1036671
12:00+8зюз48475 0.0 10371201
15:00+9зюз36446 0.0 10371261
18:00+6ююз376796 0.0 1036173
21:00+4ююз4137873 0.0 1036344
13 апреля, вт
вт1300:00+3ююз4138192 0.0 1035355
03:00+3ююз3128475 0.0 1035307
06:00+3ююз31185100 0.0 1033289
09:00+7ююз41376100 0.0 1030515
12:00+10ююз51275100 0.0 1028667
15:00+12ююз51277100 0.0 1025896
18:00+11юз41283100 0.0 1024765
21:00+10юз41393100 0.0 1024504
14 апреля, ср
ср1400:00+9ююз31195100 0.0 1023376
03:00+8ююз31096100 0.0 1023287
06:00+8ююз3993100 0.0 1022300
09:00+12юз4107086 0.0 1021538
12:00+16юз595694 0.0 10201001
15:00+17юз5114973 0.0 10181753
18:00+15юз5125079 0.0 1017762
21:00+13юз5146791 0.0 1017743
15 апреля, чт
чт1500:00+12зюз41271100 0.0 1016613
03:00+6с4885100 0.0 1018513
06:00+3с3895100 0.5 1021456
09:00+5с257798 0.6 1022745
12:00+8с344896 0.0 10221449
15:00+8с344497 0.0 10221568
18:00+6ссв3553100 0.0 1022608
21:00+3св2667100 0.0 1022208
16 апреля, пт
пт1600:00+1св237495 0.0 102273
03:00−1ссв22794 0.0 102243
06:00+1ссв237066 0.0 1022147
09:00+5с2348100 0.0 10211449
12:00+6с3444100 0.1 10211810
15:00+6с464395 0.2 10211931
18:00+4ссз4862100 0.5 1021833
21:00+1ссз6127358 0.8 10231175